This is the latest recevied weather packets stored in our database for station/object OK2CME-6. If no packets are shown the sender has not sent any weather packets the latest 10 day(s).
| Time | Temp. | Humidity | Pressure | Rain* | Wind** | Luminosity | Snow |
|---|---|---|---|---|---|---|---|
| 1777859301 | 11.67° C | 55% | 1019.3 hPa | 0 mm | - | 0 W/m² | - |
| 1777858101 | 11.67° C | 54% | 1019.1 hPa | 0 mm | - | 0 W/m² | - |
| 1777856901 | 11.67° C | 53% | 1019.4 hPa | 0 mm | - | 0 W/m² | - |
| 1777855701 | 12.22° C | 52% | 1019.1 hPa | 0 mm | - | 0 W/m² | - |
| 1777854501 | 12.22° C | 51% | 1019.5 hPa | 0 mm | - | 0 W/m² | - |
| 1777853300 | 12.22° C | 50% | 1019.4 hPa | 0 mm | - | 0 W/m² | - |
| 1777852100 | 12.78° C | 49% | 1019.4 hPa | 0 mm | - | 0 W/m² | - |
| 1777850900 | 12.22° C | 50% | 1019.5 hPa | 0 mm | - | 0 W/m² | - |
| 1777849700 | 12.78° C | 48% | 1019.7 hPa | 0 mm | - | 0 W/m² | - |
| 1777848500 | 13.33° C | 47% | 1019.7 hPa | 0 mm | - | 0 W/m² | - |
| 1777847299 | 13.33° C | 46% | 1020 hPa | 0 mm | - | 0 W/m² | - |
| 1777846099 | 13.33° C | 46% | 1019.8 hPa | 0 mm | - | 0 W/m² | - |
| 1777844899 | 13.33° C | 47% | 1019.7 hPa | 0 mm | - | 0 W/m² | - |
| 1777843699 | 13.33° C | 47% | 1019.7 hPa | 0 mm | - | 0 W/m² | - |
| 1777842499 | 13.89° C | 47% | 1020 hPa | 0 mm | - | 0 W/m² | - |
| 1777841299 | 14.44° C | 46% | 1019.9 hPa | 0 mm | - | 0 W/m² | - |
| 1777840098 | 14.44° C | 48% | 1020.1 hPa | 0 mm | - | 0 W/m² | - |
| 1777838898 | 14.44° C | 50% | 1020.4 hPa | 0 mm | - | 0 W/m² | - |
| 1777837698 | 14.44° C | 52% | 1020.3 hPa | 0 mm | - | 0 W/m² | - |
| 1777836498 | 14.44° C | 52% | 1020.1 hPa | 0 mm | - | 0 W/m² | - |
| 1777835298 | 15.56° C | 50% | 1020.1 hPa | 0 mm | - | 0 W/m² | - |
| 1777834098 | 15.56° C | 49% | 1020.2 hPa | 0 mm | - | 0 W/m² | - |
| 1777832897 | 16.67° C | 47% | 1020 hPa | 0 mm | - | 3 W/m² | - |
| 1777831697 | 17.78° C | 44% | 1020 hPa | 0 mm | - | 12 W/m² | - |
| 1777830497 | 18.33° C | 42% | 1019.7 hPa | 0 mm | - | 21 W/m² | - |
* Rain latest hour (hover to see other rain measurements)
** Current wind speed in m/s (hover to see current wind gust speed)